Location: ?
(35.4554°N, 139.3092°E)
Time: 22:12:06
(UTC+00:00)

Cosmos 1953 - Pass Details

Date: 21 April 2021
Orbit: 537 x 558 km, 82.5° (Epoch: 10 May)

Event Time Altitude Azimuth Distance (km) Brightness Sun altitude
Rises 19:30:56 0° 355° (N) 2,699 6.1 -6.8°
Reaches altitude 10° 19:33:06 10° 357° (N) 1,802 5.2 -6.4°
Maximum altitude 19:37:03 75° 82° (E) 559 2.5 -5.7°
Drops below altitude 10° 19:40:59 10° 169° (S) 1,788 4.9 -4.9°
Sets 19:43:07 0° 171° (S) 2,675 5.7 -4.5°
